DW0243 Weather Reports


time (UTC)temp
C
wind
direction
speed
KPH
gust
KPH
rain 1hr
cm
rain 24hr
cm
rain mn
cm
humidity
%
barometer
mb
20260504221249 12 209 0.0 0.0 0.15 0.71 0.08 92 1013.5
20260504215249 12 209 0.0 0.0 0.00 0.64 0.64 92 1013.4
20260504214249 12 209 0.0 0.0 0.00 0.64 0.64 92 1013.3
20260504212249 12 209 0.0 0.0 0.03 0.64 0.64 92 1013.4
20260504211252 12 209 0.0 0.0 0.03 0.64 0.64 92 1013.5
20260504205251 12 209 0.0 0.0 0.03 0.61 0.64 92 1013.6
20260504204248 13 209 0.0 0.0 0.03 0.61 0.64 92 1013.5
20260504203250 13 209 0.0 0.0 0.03 0.61 0.64 93 1013.6
20260504202251 13 209 0.0 0.0 0.00 0.61 0.61 93 1013.5
20260504201250 13 209 0.0 0.0 0.00 0.61 0.61 93 1013.5
20260504200251 13 209 0.0 0.0 0.00 0.61 0.61 93 1013.2
20260504195246 13 209 0.0 0.0 0.00 0.61 0.61 93 1013.1
20260504193249 13 209 0.0 3.2 0.00 0.61 0.61 93 1013.0
20260504192248 13 210 1.6 6.4 0.00 0.61 0.61 93 1012.9
20260504191248 13 248 0.0 0.0 0.00 0.61 0.61 93 1012.8
20260504190249 13 248 0.0 0.0 0.00 0.61 0.61 93 1012.8
20260504185247 13 248 1.6 6.4 0.00 0.61 0.61 93 1012.9
20260504184247 13 248 1.6 4.8 0.00 0.61 0.61 93 1012.9
20260504183247 13 249 0.0 0.0 0.00 0.61 0.61 93 1012.8
20260504182246 13 249 0.0 1.6 0.00 0.61 0.61 92 1012.9
20260504181247 13 249 0.0 0.0 0.00 0.61 0.61 92 1012.7
20260504180246 13 249 0.0 1.6 0.00 0.61 0.61 92 1012.8
20260504175244 13 251 0.0 6.4 0.00 0.61 0.61 92 1012.8
20260504174244 13 254 1.6 4.8 0.00 0.61 0.61 92 1012.8
20260504173245 13 254 1.6 9.7 0.00 0.61 0.61 92 1013.0
20260504172245 14 250 1.6 11.3 0.00 0.61 0.61 92 1013.0
20260504171244 14 315 4.8 14.5 0.00 0.61 0.61 92 1013.2
20260504170243 14 290 4.8 12.9 0.00 0.61 0.61 92 1013.1
20260504160242 14 283 0.0 6.4 0.05 0.61 0.61 92 1013.5
20260504141239 21 263 3.2 14.5 0.00 0.00 0.00 61 1013.1
20260504140242 21 144 1.6 16.1 0.00 0.00 0.00 58 1012.3
20260504130248 22 165 3.2 11.3 0.00 0.00 0.00 54 1012.7
20260504120233 21 159 1.6 11.3 0.00 0.00 0.00 56 1013.1
20260504110234 22 108 1.6 11.3 0.00 0.00 0.00 56 1013.5
20260504100231 20 125 3.2 11.3 0.00 0.00 0.00 60 1013.6
20260504081231 16 277 0.0 3.2 0.00 0.00 0.00 65 1014.1
20260504080230 16 259 0.0 4.8 0.00 0.00 0.00 74 1014.2
20260504060227 10 259 0.0 0.0 0.00 0.00 0.00 88 1014.1
20260504050226 7 259 0.0 0.0 0.00 0.00 0.00 93 1013.7
20260504044227 6 259 0.0 0.0 0.00 0.00 0.00 94 1013.7
20260504043226 6 259 0.0 0.0 0.00 0.00 0.00 94 1013.6
20260504042226 6 259 0.0 0.0 0.00 0.00 0.00 93 1013.6
20260504041226 6 259 0.0 0.0 0.00 0.00 0.00 93 1013.7
20260504040239 6 259 0.0 0.0 0.00 0.00 0.00 93 1013.6
20260504035228 6 259 0.0 0.0 0.00 0.00 0.00 93 1013.7
20260504034227 6 259 0.0 0.0 0.00 0.00 0.00 93 1013.7
20260504033228 6 259 0.0 0.0 0.00 0.00 0.00 93 1013.8
20260504032228 6 259 0.0 0.0 0.00 0.00 0.00 93 1013.8
20260504031225 7 259 0.0 0.0 0.00 0.00 0.00 93 1013.9
20260504025224 7 259 0.0 0.0 0.00 0.00 0.00 93 1013.6
20260504024224 7 259 0.0 0.0 0.00 0.00 0.00 93 1013.8
20260504023223 7 259 0.0 3.2 0.00 0.00 0.00 93 1013.9
20260504022226 7 259 0.0 0.0 0.00 0.00 0.00 93 1013.7
20260504021225 7 259 0.0 3.2 0.00 0.00 0.00 93 1013.7
20260504020228 7 260 0.0 0.0 0.00 0.00 0.00 92 1013.6
20260504015240 7 260 0.0 0.0 0.00 0.00 0.00 92 1013.7
20260504014223 7 260 0.0 0.0 0.00 0.00 0.00 92 1013.6
20260504013223 8 260 0.0 0.0 0.00 0.00 0.00 92 1013.5
20260504012222 8 260 0.0 0.0 0.00 0.00 0.00 92 1013.6
20260504011223 8 260 0.0 0.0 0.00 0.00 0.00 92 1013.5
20260504010223 8 260 0.0 0.0 0.00 0.00 0.00 91 1013.4
20260504005222 8 260 0.0 0.0 0.00 0.00 0.00 91 1013.6
20260504004224 8 260 0.0 0.0 0.00 0.00 0.00 91 1013.6
20260504003221 9 260 0.0 0.0 0.00 0.00 0.00 91 1013.6
20260504002224 9 260 0.0 0.0 0.00 0.00 0.00 91 1013.6
20260504001221 9 260 0.0 0.0 0.00 0.00 0.00 90 1013.7
20260504000234 9 260 0.0 0.0 0.00 0.00 0.00 89 1013.6
20260503233221 10 260 0.0 3.2 0.00 0.00 0.00 88 1013.7
20260503232222 10 260 0.0 0.0 0.00 0.00 0.00 87 1013.8
20260503231219 10 260 0.0 0.0 0.00 0.00 0.00 87 1013.7
20260503230219 11 260 0.0 0.0 0.00 0.00 0.00 86 1013.7
20260503225221 11 260 0.0 0.0 0.00 0.00 0.00 85 1013.7
20260503223231 11 260 0.0 0.0 0.00 0.00 0.00 83 1013.5
20260503222219 12 260 0.0 0.0 0.00 0.00 0.00 82 1013.5